Time,TemperatureF,DewpointF,PressureIn,WindDirection,WindDirectionDegrees,WindSpeedMPH,WindSpeedGustMPH,Humidity,HourlyPrecipIn,Conditions,Clouds,dailyrainin,SoftwareType,DateUTC
2013-07-28 00:10:00,80.6,76.0,29.93,ESE,105,4.0,14.0,86,0.00,,,0.00,weatherlink.com 1.10,2013-07-28 04:10:00,
2013-07-28 00:25:00,80.5,76.0,29.93,ENE,77,7.0,11.0,86,0.00,,,0.00,weatherlink.com 1.10,2013-07-28 04:25:00,
2013-07-28 00:40:00,80.4,76.0,29.93,ESE,104,8.0,10.0,87,0.00,,,0.00,weatherlink.com 1.10,2013-07-28 04:40:00,
2013-07-28 00:55:00,80.2,76.0,29.92,SE,134,3.0,12.0,86,0.00,,,0.00,weatherlink.com 1.10,2013-07-28 04:55:00,
2013-07-28 01:10:00,80.1,76.0,29.92,SE,138,3.0,10.0,86,0.00,,,0.00,weatherlink.com 1.10,2013-07-28 05:10:00,
2013-07-28 01:25:00,80.1,76.0,29.91,SE,128,4.0,10.0,86,0.00,,,0.00,weatherlink.com 1.10,2013-07-28 05:25:00,
2013-07-28 01:40:00,80.1,76.0,29.91,East,99,5.0,11.0,86,0.00,,,0.00,weatherlink.com 1.10,2013-07-28 05:40:00,
2013-07-28 01:55:00,80.2,76.0,29.90,ESE,111,3.0,12.0,86,0.00,,,0.00,weatherlink.com 1.10,2013-07-28 05:55:00,
2013-07-28 02:10:00,80.2,76.0,29.90,ESE,118,7.0,12.0,86,0.00,,,0.00,weatherlink.com 1.10,2013-07-28 06:10:00,
2013-07-28 02:25:00,80.1,76.0,29.90,ESE,115,3.0,9.0,86,0.00,,,0.00,weatherlink.com 1.10,2013-07-28 06:25:00,
2013-07-28 02:40:00,80.1,76.0,29.89,SE,127,2.0,12.0,86,0.00,,,0.00,weatherlink.com 1.10,2013-07-28 06:40:00,
2013-07-28 02:55:00,80.1,76.0,29.89,SSE,150,5.0,11.0,87,0.00,,,0.00,weatherlink.com 1.10,2013-07-28 06:55:00,
2013-07-28 03:10:00,80.1,76.0,29.89,ESE,106,4.0,9.0,87,0.00,,,0.00,weatherlink.com 1.10,2013-07-28 07:10:00,
2013-07-28 03:25:00,80.1,76.0,29.89,SE,128,2.0,11.0,86,0.00,,,0.00,weatherlink.com 1.10,2013-07-28 07:25:00,
2013-07-28 03:40:00,80.3,76.0,29.89,ESE,119,7.0,10.0,86,0.00,,,0.00,weatherlink.com 1.10,2013-07-28 07:40:00,
2013-07-28 03:55:00,80.2,76.0,29.89,ESE,119,2.0,13.0,86,0.00,,,0.00,weatherlink.com 1.10,2013-07-28 07:55:00,
2013-07-28 04:10:00,80.2,76.0,29.89,ESE,116,1.0,9.0,87,0.00,,,0.00,weatherlink.com 1.10,2013-07-28 08:10:00,
2013-07-28 04:25:00,80.1,76.0,29.89,ESE,109,3.0,8.0,87,0.00,,,0.00,weatherlink.com 1.10,2013-07-28 08:25:00,
2013-07-28 04:40:00,80.0,76.0,29.89,East,99,3.0,8.0,87,0.00,,,0.00,weatherlink.com 1.10,2013-07-28 08:40:00,
2013-07-28 04:55:00,80.0,76.0,29.89,ESE,117,2.0,8.0,87,0.00,,,0.00,weatherlink.com 1.10,2013-07-28 08:55:00,
2013-07-28 05:10:00,80.1,76.0,29.89,ESE,121,1.0,7.0,87,0.00,,,0.00,weatherlink.com 1.10,2013-07-28 09:10:00,
2013-07-28 05:25:00,80.0,76.0,29.90,SE,134,2.0,9.0,87,0.00,,,0.00,weatherlink.com 1.10,2013-07-28 09:25:00,
2013-07-28 05:40:00,80.0,76.0,29.90,ESE,113,3.0,10.0,87,0.00,,,0.00,weatherlink.com 1.10,2013-07-28 09:40:00,
2013-07-28 05:55:00,80.0,76.0,29.90,East,88,2.0,7.0,87,0.00,,,0.00,weatherlink.com 1.10,2013-07-28 09:55:00,
2013-07-28 06:10:00,80.0,76.0,29.90,SE,126,1.0,7.0,88,0.00,,,0.00,weatherlink.com 1.10,2013-07-28 10:10:00,
2013-07-28 06:25:00,79.2,76.0,29.90,ESE,120,4.0,9.0,90,0.02,,,0.02,weatherlink.com 1.10,2013-07-28 10:25:00,
2013-07-28 06:40:00,78.7,76.0,29.90,SE,137,2.0,9.0,92,0.02,,,0.02,weatherlink.com 1.10,2013-07-28 10:40:00,
2013-07-28 06:55:00,79.0,77.0,29.91,ESE,114,1.0,8.0,93,0.02,,,0.02,weatherlink.com 1.10,2013-07-28 10:55:00,
2013-07-28 07:10:00,79.5,77.0,29.91,SE,130,4.0,9.0,92,0.03,,,0.03,weatherlink.com 1.10,2013-07-28 11:10:00,
2013-07-28 07:25:00,80.0,78.0,29.91,SE,126,9.0,9.0,92,0.01,,,0.03,weatherlink.com 1.10,2013-07-28 11:25:00,
2013-07-28 07:40:00,80.2,77.0,29.91,ESE,120,5.0,11.0,90,0.01,,,0.03,weatherlink.com 1.10,2013-07-28 11:40:00,
2013-07-28 07:55:00,80.2,77.0,29.92,ESE,105,3.0,9.0,89,0.01,,,0.03,weatherlink.com 1.10,2013-07-28 11:55:00,
2013-07-28 08:10:00,81.6,77.0,29.92,ESE,103,4.0,11.0,87,0.00,,,0.03,weatherlink.com 1.10,2013-07-28 12:10:00,
2013-07-28 08:25:00,81.9,77.0,29.92,East,84,3.0,11.0,84,0.00,,,0.03,weatherlink.com 1.10,2013-07-28 12:25:00,
2013-07-28 08:40:00,82.9,77.0,29.92,SE,140,2.0,11.0,83,0.00,,,0.03,weatherlink.com 1.10,2013-07-28 12:40:00,
2013-07-28 08:56:00,83.2,78.0,29.92,ESE,119,10.0,11.0,84,0.00,,,0.03,weatherlink.com 1.10,2013-07-28 12:56:00,
2013-07-28 09:11:00,83.1,78.0,29.92,SE,140,7.0,12.0,83,0.00,,,0.03,weatherlink.com 1.10,2013-07-28 13:11:00,
2013-07-28 09:26:00,83.2,78.0,29.93,SE,145,5.0,10.0,83,0.00,,,0.03,weatherlink.com 1.10,2013-07-28 13:26:00,
2013-07-28 09:41:00,84.6,78.0,29.93,SE,143,7.0,12.0,81,0.00,,,0.03,weatherlink.com 1.10,2013-07-28 13:41:00,
2013-07-28 09:56:00,85.2,77.0,29.93,ESE,123,9.0,14.0,77,0.00,,,0.03,weatherlink.com 1.10,2013-07-28 13:56:00,
2013-07-28 10:11:00,85.7,77.0,29.93,SE,126,4.0,14.0,75,0.00,,,0.03,weatherlink.com 1.10,2013-07-28 14:11:00,
2013-07-28 10:26:00,86.0,76.0,29.93,ESE,119,7.0,12.0,71,0.00,,,0.03,weatherlink.com 1.10,2013-07-28 14:26:00,
2013-07-28 10:41:00,86.5,76.0,29.93,ESE,110,4.0,13.0,71,0.00,,,0.03,weatherlink.com 1.10,2013-07-28 14:41:00,
2013-07-28 10:56:00,85.9,77.0,29.93,SE,138,13.0,14.0,75,0.00,,,0.03,weatherlink.com 1.10,2013-07-28 14:56:00,
2013-07-28 11:11:00,86.5,77.0,29.93,East,90,6.0,15.0,72,0.00,,,0.03,weatherlink.com 1.10,2013-07-28 15:11:00,
2013-07-28 11:26:00,86.9,77.0,29.93,NE,49,8.0,16.0,72,0.00,,,0.03,weatherlink.com 1.10,2013-07-28 15:26:00,
2013-07-28 11:41:00,87.4,77.0,29.93,East,91,9.0,15.0,70,0.00,,,0.03,weatherlink.com 1.10,2013-07-28 15:41:00,
2013-07-28 13:11:00,88.0,78.0,29.91,ENE,74,8.0,14.0,71,0.00,,,0.03,weatherlink.com 1.10,2013-07-28 17:11:00,
2013-07-28 13:26:00,87.4,77.0,29.90,ESE,119,4.0,15.0,70,0.00,,,0.03,weatherlink.com 1.10,2013-07-28 17:26:00,
2013-07-28 13:41:00,87.9,77.0,29.90,SE,132,5.0,13.0,69,0.00,,,0.03,weatherlink.com 1.10,2013-07-28 17:41:00,
2013-07-28 13:56:00,87.2,78.0,29.89,East,100,3.0,14.0,73,0.00,,,0.03,weatherlink.com 1.10,2013-07-28 17:56:00,
2013-07-28 14:11:00,87.1,77.0,29.89,ESE,103,5.0,16.0,72,0.00,,,0.03,weatherlink.com 1.10,2013-07-28 18:11:00,
2013-07-28 14:41:00,86.4,78.0,29.89,ESE,116,8.0,13.0,75,0.00,,,0.03,weatherlink.com 1.10,2013-07-28 18:41:00,
2013-07-28 14:56:00,85.7,77.0,29.89,ENE,67,7.0,15.0,75,0.00,,,0.03,weatherlink.com 1.10,2013-07-28 18:56:00,
2013-07-28 15:11:00,86.2,78.0,29.88,East,86,7.0,14.0,76,0.00,,,0.03,weatherlink.com 1.10,2013-07-28 19:11:00,
2013-07-28 15:41:00,85.8,77.0,29.88,East,89,5.0,14.0,75,0.00,,,0.03,weatherlink.com 1.10,2013-07-28 19:41:00,
2013-07-28 15:56:00,85.5,78.0,29.88,East,85,6.0,12.0,77,0.00,,,0.03,weatherlink.com 1.10,2013-07-28 19:56:00,
2013-07-28 16:11:00,84.8,77.0,29.87,ENE,60,8.0,15.0,78,0.00,,,0.03,weatherlink.com 1.10,2013-07-28 20:11:00,
2013-07-28 16:26:00,84.5,77.0,29.87,ESE,111,8.0,15.0,79,0.00,,,0.03,weatherlink.com 1.10,2013-07-28 20:26:00,
2013-07-28 16:41:00,85.3,77.0,29.87,NE,46,4.0,13.0,77,0.00,,,0.03,weatherlink.com 1.10,2013-07-28 20:41:00,
2013-07-28 16:56:00,84.5,77.0,29.87,East,89,5.0,14.0,78,0.00,,,0.03,weatherlink.com 1.10,2013-07-28 20:56:00,
2013-07-28 17:11:00,84.4,77.0,29.87,SE,139,8.0,17.0,79,0.00,,,0.03,weatherlink.com 1.10,2013-07-28 21:11:00,
2013-07-28 17:26:00,84.0,77.0,29.86,East,86,5.0,11.0,79,0.00,,,0.03,weatherlink.com 1.10,2013-07-28 21:26:00,
2013-07-28 17:41:00,83.6,77.0,29.87,NE,54,4.0,15.0,81,0.00,,,0.03,weatherlink.com 1.10,2013-07-28 21:41:00,
2013-07-28 17:56:00,83.9,76.0,29.87,East,99,10.0,15.0,78,0.00,,,0.03,weatherlink.com 1.10,2013-07-28 21:56:00,
2013-07-28 18:11:00,83.8,77.0,29.87,East,87,9.0,16.0,80,0.00,,,0.03,weatherlink.com 1.10,2013-07-28 22:11:00,
2013-07-28 18:41:00,82.9,76.0,29.88,ENE,74,5.0,15.0,80,0.00,,,0.03,weatherlink.com 1.10,2013-07-28 22:41:00,
2013-07-28 18:56:00,82.4,76.0,29.88,East,100,7.0,16.0,81,0.00,,,0.03,weatherlink.com 1.10,2013-07-28 22:56:00,
2013-07-28 19:11:00,82.0,76.0,29.88,ENE,57,3.0,13.0,82,0.00,,,0.03,weatherlink.com 1.10,2013-07-28 23:11:00,
2013-07-28 19:26:00,81.8,76.0,29.89,East,82,3.0,13.0,82,0.00,,,0.03,weatherlink.com 1.10,2013-07-28 23:26:00,
2013-07-28 19:41:00,81.6,76.0,29.89,East,88,1.0,14.0,82,0.00,,,0.03,weatherlink.com 1.10,2013-07-28 23:41:00,
2013-07-28 20:11:00,81.4,76.0,29.90,East,101,9.0,12.0,84,0.00,,,0.03,weatherlink.com 1.10,2013-07-29 00:11:00,
2013-07-28 20:26:00,81.4,76.0,29.91,ENE,74,13.0,13.0,84,0.00,,,0.03,weatherlink.com 1.10,2013-07-29 00:26:00,
2013-07-28 20:41:00,81.2,76.0,29.91,East,94,7.0,14.0,84,0.00,,,0.03,weatherlink.com 1.10,2013-07-29 00:41:00,
2013-07-28 20:56:00,81.2,76.0,29.91,NE,34,1.0,14.0,85,0.00,,,0.03,weatherlink.com 1.10,2013-07-29 00:56:00,
2013-07-28 21:11:00,81.1,76.0,29.92,East,84,3.0,11.0,85,0.00,,,0.03,weatherlink.com 1.10,2013-07-29 01:11:00,
2013-07-28 21:26:00,80.9,76.0,29.92,East,81,3.0,12.0,85,0.00,,,0.03,weatherlink.com 1.10,2013-07-29 01:26:00,
2013-07-28 21:41:00,80.9,76.0,29.92,East,92,5.0,13.0,85,0.00,,,0.03,weatherlink.com 1.10,2013-07-29 01:41:00,
2013-07-28 21:56:00,80.9,76.0,29.93,East,98,5.0,12.0,86,0.00,,,0.03,weatherlink.com 1.10,2013-07-29 01:56:00,
2013-07-28 22:11:00,80.8,76.0,29.93,ESE,113,4.0,10.0,86,0.00,,,0.03,weatherlink.com 1.10,2013-07-29 02:11:00,
2013-07-28 22:26:00,80.7,76.0,29.93,East,88,7.0,12.0,86,0.00,,,0.03,weatherlink.com 1.10,2013-07-29 02:26:00,
2013-07-28 23:11:00,80.6,76.0,29.94,NE,50,7.0,9.0,86,0.00,,,0.03,weatherlink.com 1.10,2013-07-29 03:11:00,
2013-07-28 23:26:00,80.5,76.0,29.94,East,86,5.0,10.0,86,0.00,,,0.03,weatherlink.com 1.10,2013-07-29 03:26:00,
2013-07-28 23:41:00,80.5,76.0,29.94,East,92,5.0,11.0,86,0.00,,,0.03,weatherlink.com 1.10,2013-07-29 03:41:00,
2013-07-28 23:56:00,80.5,76.0,29.93,North,11,6.0,13.0,86,0.00,,,0.03,weatherlink.com 1.10,2013-07-29 03:56:00,